THOR ABLESTAR R/B, 47

Orbit data source: Space-Track

THOR ABLESTAR R/B, 47 is space debris in LEO originally from a launch on Wed, 22 Jun 1960 UTC launched from the Air Force Eastern Test Range (AFETR). Debris objects in space refer to the collection of defunct objects orbiting the Earth. Examples of debris include non-operational satellites, rocket bodies, and fragments generated from explosions, collisions, or faulty payload assembly.

Loading next visibility...
Identifier
47, 1960-007C
Orbit
LEO
Country
Flag of USUS
Related business
Manufacturer
Aerojet
Mission
Spacecraft
Bus & Motor
ABLESTAR, Unknown motor
Mass
~600 kg wet, 600 kg dry
Launch date (UTC)
1960-06-22 (65 years ago)
Launch vehicle
Unknown
Launch site
Air Force Eastern Test Range (AFETR)
Object type
Payload
Rocket body
Debris
Shape & HBR
Cyl, 2.4 m
Radar Cross Section
6.048 m², Large (>1 m²)

Expand to show TLE details & history
Last TLE update: 1 day ago

TLE from 1 day ago
0 THOR ABLESTAR R/B
1 00047U 60007C   25259.80416023  .00000201  00000-0  66774-4 0  9998
2 00047  66.6641  61.1602 0222644 336.8768  22.2434 14.44841109411301
Epoch: 2025-09-16T19:17Z
TLE epoch observation values (Epoch: 2025-09-16T19:17:59.443Z)
Latitude
-0.00001°
Longitude
135.67331°
Altitude
598.434 km
Speed
7.638 km/s
True Right ascension
04h 04m 38s
True Declination
0° 00' 00"
Sunlit
Object was in daylight at epoch
Visualization orbit readout
Latitude
Unknown
Longitude
Unknown
Altitude
Unknown
Speed
Unknown
Apparent Right ascension
Unknown
Apparent Declination
Unknown
Sunlit
N/A
Visualization observer readout
Local Sidereal Time
17:40:59
Azimuth
Unknown
Elevation
Unknown
Doppler factor
Unknown
Orbital elements
Apogee altitude
899.416 km
Perigee altitude
582.413 km
Semi-major axis
7,119.052 km
Eccentricity
0.02226
Inclination
66.6641°
RAAN
61.1602°
Arg. of periapsis
336.8768°
True anomaly
23.23464°
Mean anomaly
22.2434°
Eccentric anomaly
22.73643°
Mean motion
3.61335 °/min
Orbital period
99.63 mins
BSTAR
0.000066774
Loading maneuver chart data...
Computing Atmospheric mass density...
Loading historical data...
Loading historical data...
Loading historical data...
Loading historical data...
Loading historical data...
Loading historical data...
Loading historical data...

Documentation

Showing up to 5 results
|